DELTA 1 DEB, 7959

Orbit data source: Space-Track

DELTA 1 DEB, 7959 is space debris in SSO originally from a launch on Sun, 23 Jul 1972 UTC launched from the Air Force Western Test Range (AFWTR). Debris objects in space refer to the collection of defunct objects orbiting the Earth. Examples of debris include non-operational satellites, rocket bodies, and fragments generated from explosions, collisions, or faulty payload assembly.

Loading next visibility...
Identifier
7959, 1972-058CP
Orbit
SSO
Country
Flag of USUS
Related business
Manufacturer
Unknown
Mission
Spacecraft
Bus & Motor
Unknown
Mass
Unknown
Launch date (UTC)
1972-07-23 (54 years ago)
Launch vehicle
Unknown
Launch site
Air Force Western Test Range (AFWTR)
Object type
Payload
Rocket body
Debris
Shape & HBR
Unknown shape, 0.2 m
Radar Cross Section
Medium (>0.1 m² and <1 m²)

Expand to show TLE details & history
Last TLE update: 11 hours ago

TLE from 11 hours ago
0 DELTA 1 DEB
1  7959U 72058CP  26121.25151488  .00000658  00000-0  25705-3 0  9999
2  7959  98.0235  59.6165 0234650 168.2081 192.4727 14.18487405741531
Epoch: 2026-05-01T06:02Z
TLE epoch observation values (Epoch: 2026-05-01T06:02:10.885Z)
Latitude
-0.00004°
Longitude
109.8847°
Altitude
998.779 km
Speed
7.268 km/s
True Right ascension
03h 58m 27s
True Declination
0° 00' 00"
Sunlit
Object was in daylight at epoch
Visualization orbit readout
Latitude
Unknown
Longitude
Unknown
Altitude
Unknown
Speed
Unknown
Apparent Right ascension
Unknown
Apparent Declination
Unknown
Sunlit
N/A
Visualization observer readout
Local Sidereal Time
00:12:52
Azimuth
Unknown
Elevation
Unknown
Doppler factor
Unknown
Orbital elements
Apogee altitude
996.682 km
Perigee altitude
658.517 km
Semi-major axis
7,205.736 km
Eccentricity
0.02347
Inclination
98.0235°
RAAN
59.6165°
Arg. of periapsis
168.2081°
True anomaly
191.90816°
Mean anomaly
192.4727°
Eccentric anomaly
192.18884°
Mean motion
3.54834 °/min
Orbital period
101.46 mins
BSTAR
0.00025705
Loading maneuver chart data...
Computing Atmospheric mass density...
Loading historical data...
Loading historical data...
Loading historical data...
Loading historical data...
Loading historical data...
Loading historical data...
Loading historical data...

Documentation

Showing up to 5 results
|